Location: Glenbow
(51.1592°N, 114.3828°W)
Time: 20:43:42
(UTC+00:00)

Envisat - Pass Details

Date: 09 December 2021
Orbit: 764 x 766 km, 98.2° (Epoch: 26 January)

Event Time Altitude Azimuth Distance (km) Brightness Sun altitude
Rises 12:24:48 0° 17° (NNE) 3,247 6.4 -27.7°
Reaches altitude 10° 12:27:11 10° 22° (NNE) 2,316 5.7 -27.3°
Maximum altitude 12:32:12 55° 100° (E) 919 3.6 -26.5°
Drops below altitude 10° 12:37:10 10° 178° (S) 2,298 5.5 -25.8°
Sets 12:39:30 0° 183° (S) 3,219 6.3 -25.4°
